| time (UTC) | temp F | wind direction | speed MPH | gust MPH | rain 1hr in | rain 24hr in | rain mn in | humidity % | barometer mb |
| 20260506145120 | 61 | 34 | 5.0 | 10.0 | 0.00 | 0.19 | 0.00 | 76 | 1010.4 |
| 20260506144619 | 61 | 57 | 4.0 | 13.0 | 0.00 | 0.24 | 0.00 | 73 | 1010.1 |
| 20260506144121 | 62 | 64 | 5.0 | 7.0 | 0.00 | 0.27 | 0.00 | 73 | 1010.1 |
| 20260506143119 | 62 | 108 | 5.0 | 12.0 | 0.00 | 0.28 | 0.00 | 71 | 1010.1 |
| 20260506142620 | 62 | 66 | 4.0 | 9.0 | 0.00 | 0.28 | 0.00 | 69 | 1010.1 |
| 20260506142120 | 62 | 91 | 4.0 | 10.0 | 0.00 | 0.29 | 0.00 | 69 | 1010.1 |
| 20260506141619 | 63 | 89 | 5.0 | 10.0 | 0.00 | 0.34 | 0.00 | 69 | 1010.3 |
| 20260506141120 | 63 | 99 | 5.0 | 11.0 | 0.00 | 0.35 | 0.00 | 68 | 1010.3 |
| 20260506140619 | 64 | 118 | 4.0 | 13.0 | 0.00 | 0.35 | 0.00 | 67 | 1010.5 |
| 20260506140120 | 64 | 72 | 4.0 | 9.0 | 0.00 | 0.35 | 0.00 | 66 | 1010.5 |
| 20260506135620 | 65 | 106 | 4.0 | 8.0 | 0.00 | 0.35 | 0.00 | 65 | 1010.5 |
| 20260506135120 | 65 | 110 | 4.0 | 9.0 | 0.00 | 0.35 | 0.00 | 66 | 1010.6 |
| 20260506134620 | 64 | 87 | 4.0 | 10.0 | 0.00 | 0.35 | 0.00 | 67 | 1010.6 |
| 20260506134121 | 64 | 103 | 4.0 | 11.0 | 0.00 | 0.35 | 0.00 | 66 | 1010.8 |
| 20260506133619 | 65 | 109 | 4.0 | 8.0 | 0.00 | 0.35 | 0.00 | 67 | 1010.9 |
| 20260506133119 | 65 | 117 | 4.0 | 8.0 | 0.00 | 0.35 | 0.00 | 65 | 1010.9 |
| 20260506132619 | 66 | 112 | 4.0 | 11.0 | 0.00 | 0.35 | 0.00 | 63 | 1010.9 |
| 20260506132121 | 66 | 114 | 4.0 | 10.0 | 0.00 | 0.35 | 0.00 | 65 | 1010.9 |
| 20260506131119 | 65 | 111 | 5.0 | 13.0 | 0.00 | 0.35 | 0.00 | 64 | 1011.1 |
| 20260506130620 | 66 | 115 | 5.0 | 9.0 | 0.00 | 0.35 | 0.00 | 63 | 1011.0 |
| 20260506130120 | 66 | 109 | 5.0 | 12.0 | 0.00 | 0.35 | 0.00 | 64 | 1011.0 |
| 20260506125620 | 66 | 107 | 5.0 | 10.0 | 0.00 | 0.35 | 0.00 | 64 | 1011.1 |
| 20260506125120 | 66 | 122 | 5.0 | 11.0 | 0.00 | 0.35 | 0.00 | 63 | 1011.0 |
| 20260506124620 | 66 | 119 | 5.0 | 12.0 | 0.00 | 0.35 | 0.00 | 62 | 1011.1 |
| 20260506123619 | 65 | 95 | 4.0 | 9.0 | 0.00 | 0.36 | 0.00 | 65 | 1011.2 |
| 20260506123120 | 64 | 112 | 5.0 | 10.0 | 0.00 | 0.38 | 0.00 | 65 | 1011.3 |
| 20260506122619 | 64 | 120 | 4.0 | 10.0 | 0.00 | 0.39 | 0.00 | 67 | 1011.2 |
| 20260506122119 | 64 | 122 | 4.0 | 8.0 | 0.00 | 0.39 | 0.00 | 67 | 1011.3 |
| 20260506121619 | 64 | 114 | 5.0 | 12.0 | 0.00 | 0.39 | 0.00 | 68 | 1011.2 |
| 20260506121119 | 62 | 108 | 4.0 | 9.0 | 0.00 | 0.39 | 0.00 | 70 | 1011.3 |
| 20260506120619 | 62 | 115 | 4.0 | 8.0 | 0.00 | 0.39 | 0.00 | 69 | 1011.3 |
| 20260506120119 | 62 | 111 | 3.0 | 10.0 | 0.00 | 0.39 | 0.00 | 69 | 1011.4 |
| 20260506115619 | 63 | 112 | 3.0 | 9.0 | 0.00 | 0.39 | 0.00 | 71 | 1011.3 |
| 20260506115119 | 63 | 131 | 3.0 | 9.0 | 0.00 | 0.39 | 0.00 | 71 | 1011.3 |
| 20260506113120 | 65 | 116 | 4.0 | 8.0 | 0.00 | 0.39 | 0.00 | 63 | 1011.3 |
| 20260506111619 | 67 | 115 | 3.0 | 9.0 | 0.00 | 0.39 | 0.00 | 62 | 1011.3 |
| 20260506111119 | 66 | 108 | 4.0 | 10.0 | 0.00 | 0.39 | 0.00 | 63 | 1011.4 |
| 20260506110619 | 66 | 115 | 4.0 | 10.0 | 0.00 | 0.39 | 0.00 | 63 | 1011.5 |
| 20260506110120 | 65 | 102 | 4.0 | 8.0 | 0.00 | 0.39 | 0.00 | 66 | 1011.5 |
| 20260506105619 | 65 | 112 | 3.0 | 11.0 | 0.00 | 0.39 | 0.00 | 67 | 1011.5 |
| 20260506104620 | 66 | 135 | 3.0 | 7.0 | 0.00 | 0.39 | 0.00 | 63 | 1011.5 |
| 20260506104119 | 67 | 121 | 3.0 | 8.0 | 0.00 | 0.39 | 0.00 | 62 | 1011.5 |
| 20260506103619 | 69 | 122 | 2.0 | 8.0 | 0.00 | 0.39 | 0.00 | 56 | 1011.6 |
| 20260506102621 | 67 | 235 | 1.0 | 8.0 | 0.00 | 0.39 | 0.00 | 56 | 1011.6 |
| 20260506102120 | 66 | 210 | 2.0 | 5.0 | 0.00 | 0.39 | 0.00 | 58 | 1011.7 |
| 20260506101120 | 66 | 193 | 1.0 | 5.0 | 0.00 | 0.39 | 0.00 | 60 | 1011.8 |
| 20260506100121 | 66 | 222 | 2.0 | 5.0 | 0.00 | 0.39 | 0.00 | 57 | 1011.8 |
| 20260506095620 | 67 | 205 | 2.0 | 4.0 | 0.00 | 0.39 | 0.00 | 58 | 1011.9 |
| 20260506095119 | 67 | 150 | 3.0 | 6.0 | 0.00 | 0.39 | 0.00 | 56 | 1012.0 |
| 20260506094120 | 67 | 169 | 1.0 | 5.0 | 0.00 | 0.39 | 0.00 | 60 | 1011.9 |
| 20260506093619 | 65 | 221 | 1.0 | 2.0 | 0.00 | 0.39 | 0.00 | 64 | 1011.9 |
| 20260506092620 | 66 | 259 | 2.0 | 4.0 | 0.00 | 0.39 | 0.00 | 64 | 1011.9 |
| 20260506092120 | 66 | 209 | 2.0 | 7.0 | 0.00 | 0.39 | 0.00 | 61 | 1012.0 |
| 20260506091120 | 66 | 242 | 1.0 | 7.0 | 0.00 | 0.39 | 0.00 | 63 | 1011.9 |
| 20260506090119 | 66 | 147 | 2.0 | 6.0 | 0.00 | 0.39 | 0.00 | 67 | 1011.7 |
| 20260506085619 | 65 | 164 | 2.0 | 5.0 | 0.00 | 0.39 | 0.00 | 66 | 1011.7 |
| 20260506084619 | 64 | 59 | 1.0 | 3.0 | 0.00 | 0.39 | 0.00 | 65 | 1011.7 |
| 20260506084119 | 64 | 81 | 1.0 | 3.0 | 0.00 | 0.39 | 0.00 | 67 | 1011.7 |
| 20260506083120 | 64 | 128 | 2.0 | 6.0 | 0.00 | 0.39 | 0.00 | 67 | 1011.6 |
| 20260506082619 | 65 | 97 | 1.0 | 4.0 | 0.00 | 0.39 | 0.00 | 66 | 1011.6 |
| 20260506082119 | 64 | 34 | 1.0 | 2.0 | 0.00 | 0.39 | 0.00 | 68 | 1011.6 |
| 20260506081619 | 63 | 53 | 2.0 | 4.0 | 0.00 | 0.39 | 0.00 | 68 | 1011.5 |
| 20260506081119 | 63 | 28 | 2.0 | 5.0 | 0.00 | 0.39 | 0.00 | 70 | 1011.5 |
| 20260506080620 | 62 | 34 | 1.0 | 4.0 | 0.00 | 0.39 | 0.00 | 71 | 1011.6 |
| 20260506080119 | 61 | 47 | 1.0 | 3.0 | 0.00 | 0.39 | 0.00 | 72 | 1011.5 |
| 20260506073120 | 62 | 47 | 1.0 | 5.0 | 0.00 | 0.39 | 0.00 | 74 | 1011.5 |
| 20260506072620 | 61 | 12 | 1.0 | 3.0 | 0.00 | 0.39 | 0.00 | 75 | 1011.5 |
| 20260506072119 | 60 | 9 | 2.0 | 4.0 | 0.00 | 0.39 | 0.00 | 76 | 1011.4 |
| 20260506071621 | 60 | 41 | 2.0 | 2.0 | 0.00 | 0.39 | 0.00 | 77 | 1011.4 |
| 20260506071120 | 59 | 15 | 2.0 | 3.0 | 0.00 | 0.39 | 0.00 | 79 | 1011.5 |
| 20260506070619 | 59 | 54 | 2.0 | 4.0 | 0.00 | 0.39 | 0.00 | 77 | 1011.5 |
| 20260506070119 | 59 | 27 | 2.0 | 3.0 | 0.00 | 0.39 | 0.00 | 79 | 1011.5 |
| 20260506062119 | 55 | 256 | 0.0 | 1.0 | 0.00 | 0.39 | 0.00 | 86 | 1011.2 |
| 20260506061619 | 55 | 257 | 0.0 | 1.0 | 0.00 | 0.39 | 0.00 | 86 | 1011.3 |
| 20260506061120 | 54 | 0 | 0.0 | 0.0 | 0.00 | 0.39 | 0.00 | 87 | 1011.3 |
| 20260506060619 | 54 | 256 | 0.0 | 1.0 | 0.00 | 0.39 | 0.00 | 87 | 1011.3 |
| 20260506060120 | 54 | 257 | 0.0 | 1.0 | 0.00 | 0.39 | 0.00 | 87 | 1011.2 |
| 20260506051120 | 53 | 257 | 1.0 | 1.0 | 0.00 | 0.39 | 0.00 | 86 | 1010.7 |
| 20260506050619 | 53 | 222 | 1.0 | 3.0 | 0.00 | 0.39 | 0.00 | 86 | 1010.7 |
| 20260506050119 | 53 | 233 | 1.0 | 2.0 | 0.00 | 0.39 | 0.00 | 86 | 1010.6 |
| 20260506045119 | 53 | 0 | 0.0 | 0.0 | 0.00 | 0.39 | 0.00 | 85 | 1010.4 |
| 20260506044619 | 53 | 252 | 0.0 | 2.0 | 0.00 | 0.39 | 0.00 | 85 | 1010.4 |
| 20260506044120 | 53 | 253 | 0.0 | 1.0 | 0.00 | 0.39 | 0.00 | 84 | 1010.4 |
| 20260506043620 | 53 | 0 | 0.0 | 0.0 | 0.00 | 0.39 | 0.00 | 85 | 1010.3 |
| 20260506043120 | 53 | 0 | 0.0 | 0.0 | 0.00 | 0.39 | 0.00 | 84 | 1010.4 |
| 20260506042619 | 53 | 0 | 0.0 | 0.0 | 0.00 | 0.39 | 0.00 | 84 | 1010.4 |
| 20260506042119 | 53 | 252 | 0.0 | 1.0 | 0.00 | 0.39 | 0.00 | 84 | 1010.3 |
| 20260506041619 | 53 | 252 | 0.0 | 2.0 | 0.00 | 0.39 | 0.00 | 84 | 1010.3 |
| 20260506041119 | 53 | 253 | 0.0 | 1.0 | 0.00 | 0.39 | 0.00 | 84 | 1010.2 |
| 20260506040619 | 53 | 253 | 0.0 | 1.0 | 0.00 | 0.39 | 0.00 | 84 | 1010.2 |
| 20260506040119 | 54 | 252 | 0.0 | 2.0 | 0.00 | 0.39 | 0.00 | 83 | 1010.2 |
| 20260506035619 | 54 | 253 | 0.0 | 1.0 | 0.00 | 0.39 | 0.00 | 82 | 1010.2 |
| 20260506035120 | 54 | 253 | 0.0 | 1.0 | 0.00 | 0.39 | 0.00 | 81 | 1010.2 |
| 20260506034119 | 55 | 253 | 0.0 | 1.0 | 0.00 | 0.39 | 0.00 | 79 | 1010.2 |
| 20260506033620 | 55 | 252 | 0.0 | 1.0 | 0.00 | 0.39 | 0.00 | 78 | 1010.1 |
| 20260506033120 | 55 | 0 | 1.0 | 0.0 | 0.00 | 0.39 | 0.00 | 77 | 1010.1 |
| 20260506032619 | 55 | 265 | 1.0 | 3.0 | 0.00 | 0.39 | 0.00 | 77 | 1010.1 |
| 20260506031619 | 55 | 292 | 1.0 | 3.0 | 0.00 | 0.39 | 0.00 | 77 | 1010.0 |
| 20260506031120 | 55 | 213 | 0.0 | 3.0 | 0.00 | 0.39 | 0.00 | 76 | 1009.9 |
| 20260506030619 | 55 | 212 | 1.0 | 1.0 | 0.00 | 0.39 | 0.00 | 76 | 1010.1 |
| 20260506025120 | 55 | 233 | 3.0 | 3.0 | 0.00 | 0.39 | 0.00 | 76 | 1010.1 |
| 20260506024619 | 55 | 233 | 3.0 | 7.0 | 0.00 | 0.39 | 0.00 | 77 | 1010.0 |
| 20260506024119 | 55 | 233 | 3.0 | 7.0 | 0.00 | 0.39 | 0.00 | 78 | 1010.0 |
| 20260506023619 | 54 | 218 | 4.0 | 6.0 | 0.00 | 0.39 | 0.00 | 79 | 1010.0 |
| 20260506023119 | 54 | 219 | 5.0 | 7.0 | 0.00 | 0.39 | 0.00 | 80 | 1009.9 |
| 20260506022619 | 54 | 216 | 4.0 | 7.0 | 0.00 | 0.39 | 0.00 | 80 | 1009.9 |
| 20260506022119 | 54 | 225 | 4.0 | 7.0 | 0.00 | 0.39 | 0.00 | 80 | 1009.9 |
| 20260506021619 | 54 | 237 | 4.0 | 8.0 | 0.00 | 0.39 | 0.00 | 80 | 1009.9 |
| 20260506021119 | 54 | 242 | 3.0 | 7.0 | 0.00 | 0.39 | 0.00 | 81 | 1009.9 |
| 20260506020620 | 54 | 255 | 3.0 | 5.0 | 0.00 | 0.39 | 0.00 | 81 | 1009.9 |
| 20260506020120 | 54 | 255 | 3.0 | 7.0 | 0.00 | 0.39 | 0.00 | 81 | 1010.0 |
| 20260506015619 | 54 | 251 | 4.0 | 7.0 | 0.00 | 0.39 | 0.00 | 81 | 1009.9 |
| 20260506015121 | 54 | 231 | 4.0 | 9.0 | 0.00 | 0.39 | 0.00 | 82 | 1009.9 |
| 20260506014619 | 54 | 234 | 4.0 | 7.0 | 0.00 | 0.39 | 0.00 | 82 | 1009.9 |
| 20260506014119 | 54 | 233 | 4.0 | 7.0 | 0.00 | 0.39 | 0.00 | 82 | 1009.9 |
| 20260506012619 | 54 | 217 | 3.0 | 6.0 | 0.00 | 0.39 | 0.00 | 82 | 1009.9 |
| 20260506012119 | 54 | 227 | 3.0 | 5.0 | 0.00 | 0.39 | 0.00 | 83 | 1010.0 |
| 20260506011619 | 54 | 229 | 3.0 | 6.0 | 0.00 | 0.39 | 0.00 | 82 | 1010.0 |
| 20260506011119 | 55 | 223 | 3.0 | 5.0 | 0.00 | 0.39 | 0.00 | 82 | 1009.9 |
| 20260506010619 | 55 | 247 | 3.0 | 8.0 | 0.00 | 0.39 | 0.00 | 81 | 1010.0 |
| 20260506010120 | 55 | 251 | 3.0 | 5.0 | 0.00 | 0.39 | 0.00 | 81 | 1010.0 |
| 20260506005619 | 55 | 243 | 3.0 | 9.0 | 0.00 | 0.39 | 0.00 | 81 | 1010.0 |
| 20260506005119 | 55 | 218 | 3.0 | 6.0 | 0.00 | 0.39 | 0.00 | 80 | 1010.1 |
| 20260506004119 | 55 | 252 | 3.0 | 7.0 | 0.00 | 0.39 | 0.00 | 79 | 1010.2 |
| 20260506003120 | 55 | 246 | 3.0 | 6.0 | 0.00 | 0.39 | 0.00 | 80 | 1010.2 |
| 20260506002619 | 55 | 239 | 4.0 | 7.0 | 0.00 | 0.39 | 0.00 | 81 | 1010.3 |
| 20260506001619 | 55 | 245 | 3.0 | 5.0 | 0.00 | 0.39 | 0.00 | 80 | 1010.3 |
| 20260506000619 | 55 | 264 | 2.0 | 5.0 | 0.00 | 0.39 | 0.00 | 77 | 1010.3 |
| 20260505235119 | 55 | 290 | 1.0 | 3.0 | 0.00 | 0.39 | 0.00 | 77 | 1010.4 |
| 20260505234619 | 55 | 296 | 2.0 | 3.0 | 0.00 | 0.39 | 0.00 | 78 | 1010.5 |
| 20260505233619 | 55 | 323 | 2.0 | 4.0 | 0.00 | 0.39 | 0.00 | 78 | 1010.6 |
| 20260505233120 | 55 | 320 | 2.0 | 4.0 | 0.00 | 0.39 | 0.00 | 77 | 1010.7 |
| 20260505232620 | 55 | 317 | 2.0 | 7.0 | 0.00 | 0.39 | 0.00 | 78 | 1010.8 |
| 20260505232119 | 55 | 315 | 2.0 | 3.0 | 0.00 | 0.39 | 0.00 | 79 | 1010.8 |
| 20260505231619 | 54 | 317 | 3.0 | 8.0 | 0.00 | 0.39 | 0.00 | 79 | 1010.8 |
| 20260505231119 | 54 | 313 | 3.0 | 8.0 | 0.00 | 0.39 | 0.00 | 80 | 1010.8 |
| 20260505230619 | 54 | 291 | 4.0 | 6.0 | 0.00 | 0.39 | 0.00 | 80 | 1010.8 |
| 20260505230119 | 54 | 317 | 4.0 | 10.0 | 0.00 | 0.39 | 0.00 | 80 | 1010.6 |
| 20260505225619 | 54 | 315 | 4.0 | 8.0 | 0.00 | 0.39 | 0.00 | 80 | 1010.6 |
| 20260505225119 | 54 | 319 | 4.0 | 11.0 | 0.00 | 0.39 | 0.00 | 81 | 1010.6 |
| 20260505224619 | 54 | 325 | 4.0 | 7.0 | 0.00 | 0.39 | 0.00 | 81 | 1010.6 |
| 20260505223120 | 54 | 324 | 4.0 | 6.0 | 0.00 | 0.39 | 0.00 | 81 | 1010.8 |
| 20260505222120 | 53 | 316 | 3.0 | 7.0 | 0.00 | 0.40 | 0.00 | 82 | 1010.9 |
| 20260505221618 | 54 | 331 | 3.0 | 6.0 | 0.00 | 0.40 | 0.00 | 82 | 1010.8 |
| 20260505221120 | 54 | 323 | 4.0 | 7.0 | 0.00 | 0.41 | 0.00 | 82 | 1010.9 |
| 20260505220619 | 54 | 320 | 4.0 | 8.0 | 0.00 | 0.43 | 0.00 | 82 | 1011.0 |
| 20260505220123 | 54 | 323 | 4.0 | 10.0 | 0.00 | 0.43 | 0.00 | 82 | 1011.1 |
| 20260505215619 | 54 | 324 | 4.0 | 12.0 | 0.00 | 0.44 | 0.43 | 82 | 1011.2 |
| 20260505215120 | 54 | 321 | 4.0 | 9.0 | 0.00 | 0.44 | 0.43 | 82 | 1011.2 |
| 20260505214619 | 54 | 306 | 4.0 | 9.0 | 0.00 | 0.44 | 0.43 | 82 | 1011.2 |
| 20260505213619 | 54 | 323 | 5.0 | 10.0 | 0.00 | 0.45 | 0.43 | 82 | 1011.3 |
| 20260505213119 | 54 | 326 | 5.0 | 9.0 | 0.00 | 0.45 | 0.43 | 83 | 1011.3 |
| 20260505212618 | 54 | 315 | 4.0 | 11.0 | 0.00 | 0.45 | 0.43 | 83 | 1011.4 |
| 20260505211619 | 54 | 323 | 4.0 | 9.0 | 0.00 | 0.45 | 0.43 | 84 | 1011.4 |
| 20260505211120 | 54 | 336 | 3.0 | 5.0 | 0.00 | 0.45 | 0.43 | 84 | 1011.4 |
| 20260505210120 | 54 | 339 | 5.0 | 11.0 | 0.00 | 0.45 | 0.43 | 85 | 1011.3 |
| 20260505205618 | 53 | 4 | 5.0 | 11.0 | 0.00 | 0.45 | 0.43 | 85 | 1011.1 |
| 20260505205119 | 53 | 7 | 4.0 | 10.0 | 0.00 | 0.45 | 0.43 | 87 | 1010.9 |
| 20260505204619 | 53 | 6 | 4.0 | 9.0 | 0.00 | 0.45 | 0.43 | 87 | 1010.7 |
| 20260505204119 | 53 | 11 | 4.0 | 8.0 | 0.00 | 0.45 | 0.43 | 87 | 1010.7 |
| 20260505203619 | 53 | 354 | 4.0 | 11.0 | 0.00 | 0.45 | 0.43 | 87 | 1010.8 |
| 20260505203119 | 53 | 336 | 4.0 | 9.0 | 0.00 | 0.45 | 0.43 | 88 | 1010.8 |
| 20260505202619 | 53 | 313 | 5.0 | 9.0 | 0.00 | 0.45 | 0.43 | 88 | 1010.9 |
| 20260505202119 | 53 | 344 | 5.0 | 9.0 | 0.00 | 0.45 | 0.43 | 88 | 1010.7 |
| 20260505201619 | 53 | 9 | 5.0 | 9.0 | 0.00 | 0.45 | 0.43 | 88 | 1010.6 |
| 20260505201119 | 53 | 332 | 6.0 | 10.0 | 0.01 | 0.45 | 0.43 | 88 | 1010.8 |
| 20260505200619 | 53 | 343 | 6.0 | 15.0 | 0.04 | 0.45 | 0.43 | 88 | 1010.8 |
| 20260505200119 | 53 | 345 | 6.0 | 13.0 | 0.05 | 0.45 | 0.43 | 88 | 1010.8 |
| 20260505195619 | 53 | 354 | 6.0 | 14.0 | 0.06 | 0.45 | 0.43 | 89 | 1010.8 |
| 20260505194620 | 53 | 344 | 5.0 | 11.0 | 0.06 | 0.45 | 0.43 | 89 | 1010.6 |
| 20260505194119 | 54 | 355 | 5.0 | 9.0 | 0.06 | 0.45 | 0.43 | 89 | 1010.5 |
| 20260505193619 | 54 | 1 | 5.0 | 13.0 | 0.06 | 0.45 | 0.43 | 89 | 1010.6 |
| 20260505192619 | 54 | 6 | 5.0 | 9.0 | 0.06 | 0.45 | 0.43 | 88 | 1010.6 |
| 20260505192119 | 54 | 4 | 6.0 | 11.0 | 0.06 | 0.45 | 0.43 | 88 | 1010.5 |
| 20260505191618 | 54 | 12 | 7.0 | 13.0 | 0.06 | 0.45 | 0.43 | 87 | 1010.6 |
| 20260505190619 | 55 | 333 | 4.0 | 10.0 | 0.01 | 0.40 | 0.39 | 86 | 1010.8 |
| 20260505190119 | 55 | 348 | 5.0 | 10.0 | 0.01 | 0.40 | 0.39 | 86 | 1010.6 |
| 20260505185619 | 55 | 357 | 7.0 | 14.0 | 0.01 | 0.39 | 0.38 | 85 | 1010.6 |
| 20260505185119 | 55 | 357 | 6.0 | 14.0 | 0.01 | 0.39 | 0.38 | 85 | 1010.4 |
| 20260505184618 | 56 | 343 | 5.0 | 10.0 | 0.01 | 0.39 | 0.38 | 85 | 1010.5 |
| 20260505182619 | 60 | 19 | 1.0 | 5.0 | 0.01 | 0.39 | 0.38 | 88 | 1009.8 |
| 20260505182120 | 60 | 95 | 1.0 | 2.0 | 0.01 | 0.39 | 0.38 | 88 | 1009.5 |
| 20260505181618 | 60 | 96 | 2.0 | 4.0 | 0.01 | 0.39 | 0.38 | 88 | 1009.4 |
| 20260505181119 | 60 | 104 | 2.0 | 4.0 | 0.01 | 0.39 | 0.38 | 88 | 1009.4 |
| 20260505180619 | 60 | 113 | 1.0 | 6.0 | 0.01 | 0.39 | 0.38 | 88 | 1009.5 |
| 20260505180119 | 60 | 108 | 1.0 | 4.0 | 0.01 | 0.39 | 0.38 | 88 | 1009.4 |
| 20260505175618 | 61 | 128 | 1.0 | 4.0 | 0.00 | 0.39 | 0.37 | 88 | 1009.4 |
| 20260505175119 | 61 | 169 | 1.0 | 5.0 | 0.00 | 0.39 | 0.37 | 88 | 1009.4 |
| 20260505174619 | 61 | 95 | 1.0 | 3.0 | 0.00 | 0.39 | 0.37 | 87 | 1009.4 |
| 20260505173618 | 61 | 110 | 2.0 | 4.0 | 0.00 | 0.39 | 0.37 | 87 | 1009.3 |
| 20260505173119 | 61 | 86 | 2.0 | 4.0 | 0.00 | 0.39 | 0.37 | 87 | 1009.3 |
| 20260505172619 | 61 | 122 | 2.0 | 7.0 | 0.00 | 0.39 | 0.37 | 87 | 1009.3 |
| 20260505172119 | 61 | 100 | 2.0 | 6.0 | 0.00 | 0.39 | 0.37 | 87 | 1009.2 |
| 20260505171119 | 61 | 81 | 2.0 | 4.0 | 0.00 | 0.39 | 0.37 | 87 | 1009.3 |
| 20260505170619 | 61 | 72 | 1.0 | 4.0 | 0.00 | 0.39 | 0.37 | 87 | 1009.3 |
| 20260505170120 | 61 | 77 | 2.0 | 4.0 | 0.00 | 0.39 | 0.37 | 87 | 1009.4 |
| 20260505165618 | 61 | 67 | 1.0 | 4.0 | 0.00 | 0.39 | 0.37 | 87 | 1009.3 |
| 20260505165119 | 61 | 92 | 1.0 | 7.0 | 0.00 | 0.39 | 0.37 | 87 | 1009.3 |
| 20260505164619 | 61 | 42 | 2.0 | 5.0 | 0.00 | 0.39 | 0.37 | 87 | 1009.5 |
| 20260505164120 | 61 | 104 | 2.0 | 8.0 | 0.00 | 0.39 | 0.37 | 87 | 1009.5 |
| 20260505163619 | 61 | 89 | 2.0 | 5.0 | 0.00 | 0.39 | 0.37 | 87 | 1009.5 |
| 20260505163120 | 61 | 107 | 2.0 | 4.0 | 0.00 | 0.39 | 0.37 | 87 | 1009.6 |
| 20260505162119 | 61 | 149 | 2.0 | 5.0 | 0.00 | 0.39 | 0.37 | 88 | 1009.7 |
| 20260505161619 | 61 | 105 | 3.0 | 4.0 | 0.02 | 0.39 | 0.37 | 88 | 1009.7 |
| 20260505161119 | 61 | 130 | 3.0 | 7.0 | 0.03 | 0.40 | 0.37 | 88 | 1009.7 |
| 20260505160619 | 61 | 115 | 3.0 | 7.0 | 0.05 | 0.43 | 0.37 | 88 | 1009.7 |
| 20260505153120 | 61 | 110 | 3.0 | 8.0 | 0.22 | 0.44 | 0.37 | 89 | 1009.5 |
| 20260505152119 | 61 | 144 | 4.0 | 7.0 | 0.24 | 0.44 | 0.37 | 89 | 1009.2 |
| 20260505151619 | 60 | 127 | 4.0 | 10.0 | 0.25 | 0.43 | 0.35 | 89 | 1009.4 |
| 20260505150619 | 60 | 122 | 4.0 | 11.0 | 0.24 | 0.39 | 0.32 | 89 | 1009.5 |
| 20260505150119 | 60 | 132 | 4.0 | 9.0 | 0.19 | 0.35 | 0.28 | 88 | 1009.5 |